Regional Weather Roundup
Issued by NWS

Home | Current Version | Previous Version | Graphics & Text | Print | Product List | Glossary On
Versions: 1 2 3 4 5 6 7 8 9 10 11 12 13 14 15 16 17 18 19 20 21 22 23 24 25 26 27 28 29 30 31 32 33 34 35 36 37 38 39 40 41 42 43 44 45 46 47 48 49 50
000
ASUS43 KDTX 250510
RWRMI
MICHIGAN HOURLY REGIONAL WEATHER ROUNDUP
NATIONAL WEATHER SERVICE DETROIT/PONTIAC MI
100 AM EDT THU MAY 25 2017

NOTE: "FAIR" INDICATES FEW OR NO CLOUDS BELOW 12,000 FEET WITH NO
SIGNIFICANT WEATHER AND/OR OBSTRUCTION TO VISIBILITY.

MIZ047>049-052>055-059>063-066>070-074>076-081>083-250600-
SOUTHEAST LOWER MICHIGAN

CITY           SKY/WX    TMP DP  RH WIND       PRES   REMARKS
ADRIAN         LGT RAIN  58  58 100 E13G21    29.46F
ANN ARBOR      LGT RAIN  59  58  96 NE7       29.48F
DETROIT CITY   CLOUDY    58  58 100 E12       29.51S
DETROIT        LGT RAIN  59  58  96 E9        29.50S
FLINT          CLOUDY    57  55  93 NE13      29.53F

CITY           SKY/WX    TMP DP  RH WIND       PRES   REMARKS
JACKSON        CLOUDY    59  57  93 NE12      29.48F
LANSING        LGT RAIN  58  54  86 NE14      29.52F FOG
LAPEER         NOT AVBL
MT. CLEMENS    LGT RAIN  59  59 100 E10       29.51F
PONTIAC        LGT RAIN  57  55  93 E10       29.51S FOG
PORT HOPE        N/A     52  49  89 NE13      29.60S
TRI CITIES     LGT RAIN  55  54  96 NE13      29.58F FOG
MIDLAND        NOT AVBL
$$
MIZ043>046-050>051-056>058-064>065-071>073-077>080-250600-
SOUTHWEST LOWER MICHIGAN

CITY           SKY/WX    TMP DP  RH WIND       PRES   REMARKS
BATTLE CREEK   LGT RAIN  58  57  97 NE12      29.49F
BENTON HARBOR  CLOUDY    56  54  93 CALM      29.50S FOG
HOLLAND        CLOUDY    60  54  80 NE7       29.54S
GRAND RAPIDS   CLOUDY    56  56 100 NE13      29.53F
KALAMAZOO      LGT RAIN  59  55  87 NE9       29.49S FOG
MUSKEGON       CLOUDY    61  51  70 NE9       29.56R
$$
MIZ016>042-250600-
NORTHERN LOWER MICHIGAN

CITY           SKY/WX    TMP DP  RH WIND       PRES   REMARKS
ALPENA         CLOUDY    56  52  86 NE10      29.66F
GAYLORD        CLOUDY    54  48  80 NE10      29.67S
HOUGHTON LAKE  CLOUDY    56  50  80 NE10      29.63S
MANISTEE       CLOUDY    55  51  86 E7        29.61S
PELLSTON       CLOUDY    56  50  80 NE9       29.69S
TRAVERSE CITY  CLOUDY    52  48  86 CALM      29.63F
$$
MIZ007>008-015-250600-
EASTERN UPPER MICHIGAN

CITY           SKY/WX    TMP DP  RH WIND       PRES   REMARKS
KINROSS        CLOUDY    53  49  86 NE6       29.72S
S. S. MARIE    CLOUDY    57  49  74 NE6       29.72S
MUNISING         N/A     43  42  97 N5        29.75S
$$
MIZ004>006-011>014-085-250600-
CENTRAL UPPER MICHIGAN

CITY           SKY/WX    TMP DP  RH WIND       PRES   REMARKS
ESCANABA       CLOUDY    51  47  86 N6        29.72S
MENOMINEE      CLOUDY    51  48  89 N8        29.70F
$$
MIZ001>003-009>011-084-250600-
WESTERN UPPER MICHIGAN

CITY           SKY/WX    TMP DP  RH WIND       PRES   REMARKS
IRON MOUNTAIN  CLOUDY    50  44  80 NE5       29.72S
HOUGHTON       CLEAR     45  40  82 NE6       29.75F
COPPER HARBOR    N/A     44  42  93 CALM      29.77F
IRONWOOD       CLEAR     41  41 100 CALM      29.76S
$$

ABBREVIATIONS USED IN REMARKS
   TC - TEMPERATURE IN CELSIUS
  WCI - WIND CHILL INDEX
   HX - HEAT INDEX
  VSB - VISIBILITY





USA.gov is the U.S. government's official web portal to all federal, state and local government web resources and services.